STARLINK-1705 (46579 NORAD) Tracking and Keplerian Element Data

This shows tracking and keplerian element data for the satellite.

Feedback or suggestion? Click here.




ElementValue
Catalog46579
NameSTARLINK-1705
Epoch Orbit178
Epoch Day338.66668981
Epoch Year2020
RAAN156.6868
Inclination52.9999
Eccentricity0.0002276
Argument of Perigee29.4
Mean Anonmoly132.1691
Mean Motion15.62777779
Decay Rate-0.00010324
L11 46579U 20070AZ 20338.66668981 -.00010324 00000-0 -10692-3 0 9999
L22 46579 52.9999 156.6868 0002276 29.4000 132.1691 15.62777779 1785

Live tracking and technical data element details for STARLINK-1705 (NORAD 46579). STARLINK-1705 can be tracked NOW for your location showing map with azimuth and elevation plus other details from your city location.

Track the satellite on the map from your city or location and see movement details for azimuth, elevation, latitude, longitude, range, height, and movement on the map or in text.







IsCatalogInMostPopularTable: catalog: 46579, numindb: 18
Update: records affected: 1



GetName: 46579 STARLINK-1705

Hit Count: updated at: Sun, 06 Dec 2020 00:48:33 GMT